St. Johnsbury, VT

12:15 AM EDT on May 25, 2018 (GMT -0400)
St. Johnsbury

Weather History for K1V4 - June, 2014

Change the Weather History Date:

Monday, June 30, 2014

  Actual Average Record
Temperature  
Mean Temperature 72 °F 69 °F  
Max Temperature 82 °F 80 °F 96 °F (1971)
Min Temperature 61 °F 58 °F 37 °F (1936)
Degree Days  
Heating Degree Days 0 1  
Month to date heating degree days 72  
Since 1 June heating degree days 72  
Since 1 July heating degree days 7776  
Cooling Degree Days 7 5  
Month to date cooling degree days 47 90  
Year to date cooling degree days 51 108  
Since 1 June cooling degree days 47 90  
Growing Degree Days 22 (Base 50)    
Moisture  
Dew Point 63 °F    
Average Humidity 76    
Maximum Humidity 93    
Minimum Humidity 58    
Precipitation  
Precipitation 0.00 in 0.14 in 3.44 in (1973)
Month to date precipitation 3.27 4.01  
Year to date precipitation 18.97 17.42  
Sea Level Pressure  
Sea Level Pressure 29.92 in    
Wind  
Wind Speed - (North)    
Max Wind Speed -    
Max Gust Speed -    
T = Trace of Precipitation, MM = Missing Value Source: NWS Daily Summary

Daily Weather History Graph

Daily Weather History Graph

Search for Another Location

Airport or City:

Astronomy

Jun. 30, 2014 Rise Set
Actual Time 5:06 AM EDT 8:36 PM EDT
Civil Twilight 4:30 AM EDT 9:12 PM EDT
Nautical Twilight 3:42 AM EDT 10:01 PM EDT
Astronomical Twilight 2:40 AM EDT 11:02 PM EDT
Moon 8:25 AM EDT (6/30) 10:18 PM EDT (6/30)
Length of Visible Light 16h 42m
Length of Day
15h 29m
Waxing Crescent, 10% of the Moon is Illuminated
Jun 30
Waxing Crescent
Jul 5
First Quarter
Jul 12
Full
Jul 18
Last Quarter
Jul 26
New

Hourly Weather History & Observations

Time (EDT) Temp. Heat Index Dew Point Humidity Pressure Visibility Wind Dir Wind Speed Gust Speed Precip Events Conditions
12:54 AM 66.9 °F - 61.0 °F 81% 30.01 in - North - - N/A   Unknown
1:54 AM 64.9 °F - 60.1 °F 84% 30.00 in - North - - N/A   Unknown
2:54 AM 63.0 °F - 60.1 °F 90% 29.99 in - North - - N/A   Unknown
3:54 AM 62.1 °F - 59.0 °F 90% 29.98 in - North - - N/A   Unknown
4:54 AM 62.1 °F - 59.0 °F 90% 29.98 in - North - - N/A   Unknown
5:54 AM 62.1 °F - 59.0 °F 90% 29.99 in - North - - N/A   Unknown
6:54 AM 63.0 °F - 59.0 °F 87% 29.99 in - North - - N/A   Unknown
7:54 AM 68.0 °F - 61.0 °F 78% 29.98 in - North - - N/A   Unknown
8:54 AM 72.0 °F - 62.1 °F 71% 29.97 in - North - - N/A   Unknown
9:54 AM 72.0 °F - 62.1 °F 71% 29.96 in - North - - N/A   Unknown
10:54 AM 73.0 °F - 64.0 °F 73% 29.95 in - North - - N/A   Unknown
11:54 AM 75.0 °F - 64.0 °F 69% 29.93 in - North - - N/A   Unknown
12:54 PM 75.9 °F - 64.9 °F 69% 29.91 in - North - - N/A   Unknown
1:54 PM 78.1 °F - 66.0 °F 66% 29.90 in - North - - N/A   Unknown
2:54 PM 79.0 °F - 66.0 °F 64% 29.88 in - North - - N/A   Unknown
3:54 PM 78.1 °F - 64.9 °F 64% 29.87 in - North - - N/A   Unknown
4:54 PM 79.0 °F - 66.0 °F 64% 29.85 in - North - - N/A   Unknown
5:54 PM 80.1 °F 82.1 °F 66.0 °F 62% 29.84 in - North - - N/A   Unknown
6:54 PM 82.0 °F 84.1 °F 66.0 °F 58% 29.83 in - North - - N/A   Unknown
7:54 PM 80.1 °F 82.3 °F 66.9 °F 64% 29.83 in - North - - N/A   Unknown
8:54 PM 78.1 °F - 66.9 °F 68% 29.83 in - North - - N/A   Unknown
9:54 PM 73.9 °F - 66.9 °F 79% 29.84 in - North - - N/A   Unknown
10:54 PM 71.1 °F - 66.9 °F 87% 29.85 in - North - - N/A   Unknown
11:54 PM 70.0 °F - 66.0 °F 87% 29.85 in - North - - N/A   Unknown